IZ3TCG-13 Weather Reports


Display with metric or nautical units.
time (UTC)temp
F
wind
direction
speed
MPH
gust
MPH
rain 1hr
in
rain 24hr
in
rain mn
in
humidity
%
barometer
mb
20260504044003 57 2 0.0 4.0 0.00 0.00 0.00 82 1010.9
20260504043604 57 342 0.0 4.0 0.00 0.00 0.00 83 1010.9
20260504043204 57 341 1.0 4.0 0.00 0.00 0.00 83 1010.7
20260504042804 57 339 0.0 2.0 0.00 0.00 0.00 84 1011.0
20260504042404 57 340 1.0 2.0 0.00 0.00 0.00 84 1011.0
20260504042003 57 338 0.0 2.0 0.00 0.00 0.00 84 1010.8
20260504041604 57 341 0.0 2.0 0.00 0.00 0.00 85 1010.7
20260504041204 56 358 0.0 2.0 0.00 0.00 0.00 85 1010.6
20260504041015 56 360 0.0 2.0 0.00 0.00 0.00 85 1010.8
20260504040403 56 360 0.0 2.0 0.00 0.00 0.00 86 1010.7
20260504040004 56 0 0.0 0.0 0.00 0.00 0.00 86 1010.6
20260504035603 56 0 0.0 0.0 0.00 0.00 0.00 86 1010.7
20260504035204 56 0 0.0 0.0 0.00 0.00 0.00 86 1010.9
20260504035017 56 0 0.0 0.0 0.00 0.00 0.00 86 1010.7
20260504034616 56 0 0.0 0.0 0.00 0.00 0.00 86 1010.7
20260504034003 56 0 0.0 0.0 0.00 0.00 0.00 87 1010.5
20260504033815 56 0 0.0 0.0 0.00 0.00 0.00 87 1010.5
20260504033415 56 0 0.0 0.0 0.00 0.00 0.00 86 1010.9
20260504032804 56 0 0.0 0.0 0.00 0.00 0.00 85 1011.0
20260504032403 57 0 0.0 0.0 0.00 0.00 0.00 85 1010.7
20260504032004 57 315 0.0 2.0 0.00 0.00 0.00 84 1010.6
20260504031604 57 304 0.0 2.0 0.00 0.00 0.00 83 1010.6
20260504031417 58 301 0.0 2.0 0.00 0.00 0.00 83 1010.8
20260504030803 58 295 0.0 2.0 0.00 0.00 0.00 83 1010.8
20260504030615 58 304 0.0 2.0 0.00 0.00 0.00 83 1010.9
20260504030004 58 308 0.0 2.0 0.00 0.00 0.00 83 1010.9
20260504025604 58 315 0.0 2.0 0.00 0.00 0.00 83 1010.9
20260504025203 58 337 0.0 2.0 0.00 0.00 0.00 84 1010.7
20260504024803 58 337 0.0 2.0 0.00 0.00 0.00 83 1010.9
20260504024403 58 342 0.0 2.0 0.00 0.00 0.00 84 1011.0
20260504024003 57 360 0.0 2.0 0.00 0.00 0.00 85 1011.0
20260504023603 57 360 0.0 2.0 0.00 0.00 0.00 85 1011.0
20260504023204 57 0 0.0 0.0 0.00 0.00 0.00 86 1011.1
20260504022803 57 0 0.0 0.0 0.00 0.00 0.00 86 1011.0
20260504022404 58 0 0.0 0.0 0.00 0.00 0.00 85 1010.9
20260504022004 58 0 0.0 0.0 0.00 0.00 0.00 85 1010.9
20260504021603 58 90 0.0 2.0 0.00 0.00 0.00 85 1010.9
20260504021204 57 90 0.0 2.0 0.00 0.00 0.00 85 1010.8
20260504020803 57 0 0.0 0.0 0.00 0.00 0.00 87 1011.0
20260504020403 57 0 0.0 0.0 0.00 0.00 0.00 87 1010.8
20260504020004 57 0 0.0 0.0 0.00 0.00 0.00 87 1010.9
20260504015603 57 0 0.0 0.0 0.00 0.00 0.00 87 1011.0
20260504015204 57 0 0.0 0.0 0.00 0.00 0.00 86 1010.8
20260504014804 57 0 0.0 0.0 0.00 0.00 0.00 86 1011.0
20260504014404 57 0 0.0 0.0 0.00 0.00 0.00 86 1010.9
20260504014217 57 0 0.0 0.0 0.00 0.00 0.00 87 1010.8
20260504013603 57 90 0.0 2.0 0.00 0.00 0.00 87 1011.0
20260504013203 57 90 0.0 2.0 0.00 0.00 0.00 87 1010.9
20260504012803 57 90 0.0 2.0 0.00 0.00 0.00 87 1011.0
20260504012614 57 90 0.0 2.0 0.00 0.00 0.00 87 1011.0
20260504012003 57 90 0.0 2.0 0.00 0.00 0.00 87 1010.9
20260504011604 57 0 0.0 0.0 0.00 0.00 0.00 88 1010.9
20260504011418 57 0 0.0 0.0 0.00 0.00 0.00 88 1011.1
20260504011017 57 0 0.0 0.0 0.00 0.00 0.00 88 1011.1
20260504010403 57 0 0.0 0.0 0.00 0.00 0.00 87 1010.9
20260504010216 57 0 0.0 0.0 0.00 0.00 0.00 87 1010.9
20260504005603 57 0 0.0 0.0 0.00 0.00 0.00 87 1010.8
20260504005204 57 0 0.0 0.0 0.00 0.00 0.00 86 1011.0
20260504004803 57 0 0.0 0.0 0.00 0.00 0.00 86 1010.9
20260504004403 57 0 0.0 0.0 0.00 0.00 0.00 86 1011.1
20260504004218 57 0 0.0 0.0 0.00 0.00 0.00 86 1011.1
20260504003603 57 0 0.0 0.0 0.00 0.00 0.00 85 1011.0
20260504003204 58 0 0.0 0.0 0.00 0.00 0.00 86 1011.1
20260504002803 58 0 0.0 0.0 0.00 0.00 0.00 85 1011.1
20260504002404 58 0 0.0 0.0 0.00 0.00 0.00 84 1011.2
20260504002003 58 0 0.0 0.0 0.00 0.00 0.00 84 1011.1
20260504001814 58 0 0.0 0.0 0.00 0.00 0.00 84 1011.2
20260504001203 58 90 0.0 2.0 0.00 0.00 0.00 85 1011.1
20260504000803 58 90 0.0 2.0 0.00 0.00 0.00 85 1011.2
20260504000403 59 90 1.0 2.0 0.00 0.00 0.00 83 1011.4
20260504000004 59 90 1.0 2.0 0.00 0.00 0.00 83 1011.2
20260503235603 59 90 0.0 2.0 0.00 0.00 0.00 84 1011.3
20260503235415 59 90 0.0 2.0 0.00 0.00 0.00 83 1011.3
20260503234804 59 90 0.0 2.0 0.00 0.00 0.00 84 1011.3
20260503234403 59 0 0.0 0.0 0.00 0.00 0.00 85 1011.6
20260503234003 59 0 0.0 0.0 0.00 0.00 0.00 85 1011.3
20260503233603 59 0 0.0 0.0 0.00 0.00 0.00 84 1011.3
20260503233417 59 0 0.0 0.0 0.00 0.00 0.00 84 1011.5
20260503232803 60 90 0.0 2.0 0.00 0.00 0.00 83 1011.6
20260503232403 60 90 0.0 2.0 0.00 0.00 0.00 83 1011.5
20260503232004 60 90 0.0 2.0 0.00 0.00 0.00 84 1011.5
20260503231603 60 90 0.0 2.0 0.00 0.00 0.00 84 1011.3
20260503231203 60 59 0.0 2.0 0.00 0.00 0.00 83 1011.3
20260503230803 60 38 1.0 2.0 0.00 0.00 0.00 83 1011.5
20260503230403 60 18 0.0 2.0 0.00 0.00 0.00 83 1011.5
20260503230004 60 17 0.0 2.0 0.00 0.00 0.00 83 1011.4
20260503225604 60 354 0.0 2.0 0.00 0.00 0.00 83 1011.4
20260503225204 60 287 1.0 2.0 0.00 0.00 0.00 82 1011.4
20260503224804 60 0 0.0 0.0 0.00 0.00 0.00 83 1011.5
20260503224403 60 0 0.0 0.0 0.00 0.00 0.00 82 1011.5
20260503224004 60 0 0.0 0.0 0.00 0.00 0.00 82 1011.5
20260503223813 60 0 0.0 0.0 0.00 0.00 0.00 82 1011.6
20260503223203 60 0 0.0 0.0 0.00 0.00 0.00 82 1011.5
20260503222803 60 0 0.0 0.0 0.00 0.00 0.00 83 1011.6
20260503222403 59 0 0.0 0.0 0.00 0.00 0.00 83 1011.3
20260503222003 60 0 0.0 0.0 0.00 0.00 0.00 83 1011.5
20260503221603 59 0 0.0 0.0 0.00 0.00 0.00 83 1011.5
20260503221415 59 0 0.0 0.0 0.00 0.00 0.00 83 1011.4
20260503220804 60 0 0.0 0.0 0.00 0.00 0.00 83 1011.6
20260503220404 60 0 0.0 0.0 0.00 0.00 0.00 82 1011.7
20260503220007 59 0 0.0 0.0 0.00 0.00 0.00 83 1011.4
20260503215604 59 0 0.0 0.0 0.00 0.00 0.00 84 1011.5
20260503215417 59 0 0.0 0.0 0.00 0.00 0.00 84 1011.4
20260503215016 59 0 0.0 0.0 0.00 0.00 0.00 84 1011.5
20260503214615 59 0 0.0 0.0 0.00 0.00 0.00 84 1011.4
20260503214214 60 0 0.0 0.0 0.00 0.00 0.00 83 1011.4
20260503213603 59 0 0.0 0.0 0.00 0.00 0.00 84 1011.3
20260503213204 60 0 0.0 0.0 0.00 0.00 0.00 84 1011.2
20260503213013 60 0 0.0 0.0 0.00 0.00 0.00 83 1011.3
20260503212405 60 0 0.0 0.0 0.00 0.00 0.00 82 1011.4
20260503212003 60 0 0.0 0.0 0.00 0.00 0.00 81 1011.5
20260503211816 60 0 0.0 0.0 0.00 0.00 0.00 81 1011.4
20260503211203 59 0 0.0 0.0 0.00 0.00 0.00 84 1011.4
20260503210804 59 0 0.0 0.0 0.00 0.00 0.00 84 1011.1
20260503210403 59 0 0.0 0.0 0.00 0.00 0.00 83 1011.2
20260503210213 59 0 0.0 0.0 0.00 0.00 0.00 83 1011.1
20260503205603 60 0 0.0 0.0 0.00 0.00 0.00 82 1011.1
20260503205203 60 0 0.0 0.0 0.00 0.00 0.00 82 1011.3
20260503205017 60 0 0.0 0.0 0.00 0.00 0.00 82 1011.2
20260503204404 60 135 0.0 2.0 0.00 0.00 0.00 81 1011.0
20260503204215 60 135 0.0 2.0 0.00 0.00 0.00 81 1011.3
20260503203604 60 135 0.0 2.0 0.00 0.00 0.00 81 1010.9
20260503203204 60 0 0.0 0.0 0.00 0.00 0.00 82 1010.9
20260503202804 60 0 0.0 0.0 0.00 0.00 0.00 82 1011.1
20260503202404 60 0 0.0 0.0 0.00 0.00 0.00 81 1011.3
20260503202004 60 0 0.0 0.0 0.00 0.00 0.00 82 1011.2
20260503201604 60 0 0.0 0.0 0.00 0.00 0.00 82 1011.2
20260503201416 60 0 0.0 0.0 0.00 0.00 0.00 82 1011.2
20260503200803 61 0 0.0 0.0 0.00 0.00 0.00 82 1011.2
20260503200403 61 0 0.0 0.0 0.00 0.00 0.00 81 1011.3
20260503200005 61 0 0.0 0.0 0.00 0.00 0.00 82 1011.2
20260503195813 61 0 0.0 0.0 0.00 0.00 0.00 81 1011.1
20260503195204 61 0 0.0 0.0 0.00 0.00 0.00 80 1011.2
20260503194803 62 0 0.0 0.0 0.00 0.00 0.00 79 1011.2
20260503194404 62 0 0.0 0.0 0.00 0.00 0.00 80 1011.2
20260503194004 62 0 0.0 0.0 0.00 0.00 0.00 80 1011.1
20260503193815 62 0 0.0 0.0 0.00 0.00 0.00 80 1011.0
20260503193203 63 0 0.0 0.0 0.00 0.00 0.00 78 1011.0
20260503192804 63 0 0.0 0.0 0.00 0.00 0.00 78 1011.1
20260503192404 63 0 0.0 0.0 0.00 0.00 0.00 78 1011.1
20260503192004 64 0 0.0 0.0 0.00 0.00 0.00 77 1011.1
20260503191604 64 0 0.0 0.0 0.00 0.00 0.00 77 1011.2
20260503191203 64 90 0.0 2.0 0.00 0.00 0.00 76 1011.1
20260503190805 64 90 0.0 2.0 0.00 0.00 0.00 76 1011.1
20260503190404 64 103 0.0 2.0 0.00 0.00 0.00 76 1010.8
20260503190005 65 99 0.0 4.0 0.00 0.00 0.00 76 1011.0
20260503185603 65 90 0.0 4.0 0.00 0.00 0.00 75 1010.8
20260503185204 65 87 0.0 4.0 0.00 0.00 0.00 75 1010.7
20260503184804 65 89 1.0 4.0 0.00 0.00 0.00 73 1010.6
20260503184403 66 78 2.0 6.0 0.00 0.00 0.00 73 1010.7
20260503184003 66 74 3.0 6.0 0.00 0.00 0.00 72 1010.7
20260503183604 66 81 4.0 6.0 0.00 0.00 0.00 72 1010.6
20260503183204 66 82 2.0 4.0 0.00 0.00 0.00 72 1010.6
20260503182804 66 79 2.0 4.0 0.00 0.00 0.00 71 1010.6
20260503182404 66 71 1.0 4.0 0.00 0.00 0.00 71 1010.6
20260503182005 66 80 1.0 4.0 0.00 0.00 0.00 70 1010.5
20260503181604 67 87 1.0 4.0 0.00 0.00 0.00 69 1010.6
20260503181203 67 90 1.0 6.0 0.00 0.00 0.00 69 1010.4
20260503180803 67 89 2.0 6.0 0.00 0.00 0.00 67 1010.7
20260503180616 67 87 2.0 6.0 0.00 0.00 0.00 67 1010.4
20260503180004 67 98 2.0 6.0 0.00 0.00 0.00 66 1010.6
20260503175603 68 97 0.0 6.0 0.00 0.00 0.00 66 1010.6
20260503175203 68 87 3.0 6.0 0.00 0.00 0.00 64 1010.5
20260503174803 69 94 1.0 7.0 0.00 0.00 0.00 63 1010.4
20260503174404 69 95 4.0 8.0 0.00 0.00 0.00 61 1010.6
20260503174003 70 86 2.0 8.0 0.00 0.00 0.00 61 1010.5
20260503173603 70 84 2.0 7.0 0.00 0.00 0.00 60 1010.3
20260503173203 70 83 3.0 8.0 0.00 0.00 0.00 59 1010.4
20260503172803 70 94 4.0 8.0 0.00 0.00 0.00 58 1010.6
20260503172615 71 92 4.0 8.0 0.00 0.00 0.00 58 1010.5
20260503172005 71 99 4.0 8.0 0.00 0.00 0.00 56 1010.4
20260503171604 71 105 5.0 8.0 0.00 0.00 0.00 55 1010.3
20260503171203 72 89 2.0 7.0 0.00 0.00 0.00 58 1010.4
20260503170803 72 81 4.0 8.0 0.00 0.00 0.00 57 1010.3
20260503170403 72 81 3.0 9.0 0.00 0.00 0.00 55 1010.3
20260503150804 75 83 4.0 11.0 0.00 0.00 0.00 50 1011.2
20260503150403 75 85 2.0 11.0 0.00 0.00 0.00 49 1011.2
20260503150217 75 85 7.0 11.0 0.00 0.00 0.00 47 1011.1
20260503131204 78 93 2.0 11.0 0.00 0.00 0.00 43 1011.8
20260503130803 78 99 5.0 11.0 0.00 0.00 0.00 43 1011.7
20260503130403 78 91 4.0 13.0 0.00 0.00 0.00 45 1011.7
20260503110803 78 77 3.0 7.0 0.00 0.00 0.00 34 1012.5
20260503110403 79 237 2.0 4.0 0.00 0.00 0.00 36 1012.5
20260503110215 79 220 2.0 4.0 0.00 0.00 0.00 33 1012.5
20260503090404 77 133 2.0 4.0 0.00 0.00 0.00 39 1007.2
20260503081603 72 269 0.0 4.0 0.00 0.00 0.00 46 1007.5
20260503081204 70 296 2.0 4.0 0.00 0.00 0.00 51 1007.4
20260503080803 72 308 1.0 2.0 0.00 0.00 0.00 50 1007.3
20260503080405 72 298 2.0 2.0 0.00 0.00 0.00 51 1007.4
20260503080215 71 293 1.0 2.0 0.00 0.00 0.00 51 1007.4
20260503072803 66 282 1.0 2.0 0.00 0.00 0.00 62 1007.6
20260503072403 66 300 1.0 4.0 0.00 0.00 0.00 63 1007.5
20260503072214 67 314 2.0 4.0 0.00 0.00 0.00 62 1007.6
20260503071604 67 293 2.0 4.0 0.00 0.00 0.00 63 1007.5
20260503071204 66 293 1.0 4.0 0.00 0.00 0.00 61 1007.7
20260503071017 65 288 1.0 4.0 0.00 0.00 0.00 64 1007.9
20260503070403 65 278 1.0 4.0 0.00 0.00 0.00 65 1007.5
20260503054803 58 288 0.0 2.0 0.00 0.00 0.00 75 1007.3
20260503054403 58 287 0.0 2.0 0.00 0.00 0.00 76 1007.5
20260503054003 57 307 0.0 2.0 0.00 0.00 0.00 77 1007.5
20260503053603 56 339 0.0 2.0 0.00 0.00 0.00 78 1007.5
20260503053203 56 4 0.0 2.0 0.00 0.00 0.00 79 1007.6
20260503052803 56 13 0.0 2.0 0.00 0.00 0.00 79 1007.5
20260503052403 55 21 1.0 2.0 0.00 0.00 0.00 80 1007.3
20260503052003 54 22 0.0 2.0 0.00 0.00 0.00 82 1007.3
20260503051603 53 0 0.0 0.0 0.00 0.00 0.00 85 1007.5
20260503051203 52 0 0.0 0.0 0.00 0.00 0.00 86 1007.4
20260503050803 52 0 0.0 0.0 0.00 0.00 0.00 86 1007.5
20260503050403 51 0 0.0 0.0 0.00 0.00 0.00 86 1007.4
20260503050217 51 0 0.0 0.0 0.00 0.00 0.00 86 1007.3
20260503045817 51 0 0.0 0.0 0.00 0.00 0.00 86 1007.2
20260503045203 50 0 0.0 0.0 0.00 0.00 0.00 86 1007.2
20260503044803 50 0 0.0 0.0 0.00 0.00 0.00 88 1007.5
20260503044403 49 0 0.0 0.0 0.00 0.00 0.00 88 1007.4